Weather Roundup
Issued by NWS

Home | Current Version | Previous Version | Text Only | Print | Product List | Glossary On
Versions: 1 2 3 4 5 6 7 8 9 10 11 12 13 14 15 16 17 18 19 20 21 22 23 24 25 26 27 28 29 30 31 32 33 34 35 36 37 38 39 40 41 42 43 44 45 46 47 48 49 50
573
NZUS93 KARX 242210
HRRWXR

CURRENT HOURLY OBSERVATIONS ACROSS
MUCH OF THE UPPER MISSISSIPPI VALLEY
NATIONAL WEATHER SERVICE LA CROSSE WI
500 PM CDT SUN SEP 24 2017


...SOUTHEAST MINNESOTA...


CITY           SKY/WX    TMP DP  RH WIND       PRES   REMARKS
ROCHESTER      MOSUNNY   86  61  42 S12G20    29.92F
ROCHESTER/MAYO FAIR      88  58  36 S12G17    29.91F
WINONA         SUNNY     90  61  37 S3        29.90F
AUSTIN         SUNNY     84  61  45 S8G16     29.90F
ALBERT LEA     SUNNY     90  59  35 S9G16     29.89S
DODGE CENTER   SUNNY     88  55  33 S13G20    29.90F
PRESTON        MOSUNNY   86  60  40 S12       29.93F
OWATONNA       SUNNY     88  61  40 S10       29.88S
FARIBAULT      SUNNY     88  59  37 SE14G21   29.87S
$$

...ELSEWHERE IN MINNESOTA...


CITY           SKY/WX    TMP DP  RH WIND       PRES   REMARKS
MINNEAPOLIS    PTSUNNY   90  62  39 S15G25    29.84F HX  90
INTNL FALLS    CLOUDY    73  67  81 CALM      29.77F
DULUTH         CLOUDY    77  67  71 S8        29.86F
RED WING       MOSUNNY   90  55  31 S7        29.86F
REDWOOD FALLS  PTSUNNY   74  65  73 W15       29.86R
MANKATO        MOSUNNY   87  62  43 S12       29.85S
WORTHINGTON    CLOUDY    70  66  87 SW3       29.91R
FAIRMONT       CLOUDY    87  62  43 S18       29.86S
$$

...SOUTHWEST WISCONSIN...


CITY           SKY/WX    TMP DP  RH WIND       PRES   REMARKS
LA CROSSE      MOSUNNY   91  61  36 S15       29.91F HX  91
PRAIRIE DU CHI SUNNY     88  57  34 SE7       29.93S
BOSCOBEL       SUNNY     90  61  37 S6        29.94F HX  90
LONE ROCK      SUNNY     89  58  34 S12       29.96F
PLATTEVILLE    SUNNY     87  61  41 S9        29.99F
FORT MC COY    SUNNY     87  59  37 S9        29.95F
CAMP DOUGLAS   SUNNY     88  60  38 S8G17     29.96F
MAUSTON-NEW LI CLEAR     88  60  39 S9G16     29.96F
VIROQUA        FAIR      86  61  42 S9        29.98S
WIS DELLS      SUNNY     87  54  31 SW10      29.98S
$$

...ELSEWHERE IN WISCONSIN...


CITY           SKY/WX    TMP DP  RH WIND       PRES   REMARKS
MILWAUKEE      MOSUNNY   82  64  54 SE15      30.01S
MADISON        MOSUNNY   88  57  34 S12       29.98F
GREEN BAY      SUNNY     88  65  46 SW7       29.99S HX  90
EAU CLAIRE     MOSUNNY   87  60  40 S15       29.90F
BLACK RVR FLS  FAIR      91  53  27 S9        29.93F
MEDFORD        SUNNY     84  58  41 S12G17    29.98S
WAUSAU         PTSUNNY   86  59  39 S15       29.97S
WIS RAPIDS     SUNNY     88  61  40 SW9       29.98F
MARSHFIELD     SUNNY     85  57  38 S13       29.97F
RICE LAKE      SUNNY     85  61  44 S12G18    29.91F
$$

...NORTHEAST IOWA...


CITY           SKY/WX    TMP DP  RH WIND       PRES   REMARKS
WATERLOO       SUNNY     89  60  37 S14       29.91F
DUBUQUE        SUNNY     85  63  47 S9        29.99F
DECORAH        SUNNY     88  63  42 S8G20     29.93F
MASON CITY     CLOUDY    88  59  37 S16       29.91F
CHARLES CITY   SUNNY     88  61  40 S13G18    29.92F
OELWEIN        PTSUNNY   90  63  40 SW8       29.94F HX  90
$$

...ELSEWHERE IN IOWA...


CITY           SKY/WX    TMP DP  RH WIND       PRES   REMARKS
DES MOINES     MOSUNNY   90  61  37 SE16      29.89F HX  90
IOWA CITY      SUNNY     90  63  40 S13       29.95F HX  91
FORT DODGE     SUNNY     89  59  36 S14G23    29.88F
MARSHALLTOWN   SUNNY     89  62  40 S14       29.91F
CEDAR RAPIDS   MOSUNNY   89  61  38 S9        29.94F
$$

...NORTHERN ILLINOIS...


CITY           SKY/WX    TMP DP  RH WIND       PRES   REMARKS
CHICAGO-OHARE  MOSUNNY   91  56  30 S13       30.00S
CHICAGO-MIDWAY MOSUNNY   89  60  37 E13       30.00S
MOLINE         SUNNY     89  62  40 S6        29.95F
ROCKFORD       MOSUNNY   88  59  37 S12       30.00F
PEORIA         MOSUNNY   90  59  35 SE8       29.97F
$$

NOTE: "FAIR" INDICATES FEW OR NO CLOUDS BELOW 12,000 FEET WITH NO
SIGNIFICANT WEATHER AND/OR OBSTRUCTIONS TO VISIBILITY. WIND
SPEEDS ARE IN MILES-PER-HOUR.




USA.gov is the U.S. government's official web portal to all federal, state and local government web resources and services.